Simultaneous Nadir Overpasses (SNOs) Predictions

Prediction of SNOs between AQUA and GOES-15 Satellite Orbit:

Table of predicted SNOs for the next 14.0 days since TLE Epoch: 3/25/2016
Index Date Time (AQUA) AQUA Lat,Lon GOES-15 Lat,Lon Distance(km) Time Diff (sec)
1 03/25/2016 10:26:29 -0.46,-132.73 0.03,-134.96 254.29 80
2 03/25/2016 22:47:54 -0.64,-137.92 -0.03,-134.98 334.97 80
3 03/27/2016 22:35:45 -0.03,-134.97 -0.03,-135.04 7.19 80
4 03/29/2016 22:23:37 0.65,-132.04 -0.03,-135.10 348.26 80
5 03/30/2016 10:44:53 0.45,-137.20 0.03,-135.12 235.99 80
6 04/01/2016 10:32:44 -0.18,-134.25 0.03,-135.17 104.37 80
7 04/01/2016 22:54:08 -0.97,-139.43 -0.04,-135.17 486.03 80
8 04/03/2016 10:20:35 -0.82,-131.31 0.03,-135.21 444.13 80
9 04/03/2016 22:41:59 -0.33,-136.49 -0.04,-135.21 146.32 80
10 04/05/2016 22:29:50 0.31,-133.55 -0.04,-135.24 192.86 80
11 04/06/2016 10:51:06 0.79,-138.70 0.04,-135.27 391.38 80




NCC Satellite Simultaneous Nadir Overpasses (SNOs) Prediction Service
